Precipitable_Water
0.56 0.54 0.53 0.52 0.51 0.49 0.50 0.49 0.48 0.48 0.48 0.46 0.45 0.45 0.45 0.44 0.44 0.44 0.44 0.41 0.40 0.39 0.40 0.39 0.40 0.40 0.41 0.41 0.41 0.39 0.39 0.30 0.23 0.22 0.22 0.20 0.25 0.29 0.44 0.59 0.57 0.58 0.70 0.80 0.83 0.73 0.73 0.87 0.94 1.24 1.20 1.20 1.15 1.18 1.36 1.41 1.46 1.31 0.98 0.94 0.86 0.97 0.89 0.97 0.92 0.93 0.89 0.72 0.68 0.65 0.74 0.79 0.79 0.92 0.98 1.07 1.08 1.07 1.14 1.16 1.28 1.36 1.38 1.37 1.43 1.51 1.47 1.50
0.58 0.56 0.54 0.53 0.52 0.50 0.50 0.49 0.46 0.44 0.44 0.44 0.45 0.45 0.45 0.45 0.44 0.44 0.44 0.43 0.41 0.40 0.39 0.39 0.39 0.40 0.41 0.41 0.42 0.43 0.40 0.30 0.22 0.22 0.19 0.19 0.25 0.29 0.42 0.53 0.56 0.60 0.71 0.65 0.74 0.70 0.63 0.73 0.86 1.11 1.10 0.99 1.19 1.10 1.29 1.24 1.40 1.08 1.00 0.93 0.83 0.95 0.99 1.09 1.07 1.01 0.98 0.70 0.77 0.75 0.79 0.80 0.85 0.87 0.90 0.89 0.87 0.90 0.93 1.09 1.11 1.13 1.30 1.41 1.44 1.47 1.41 1.42
0.55 0.56 0.54 0.53 0.52 0.50 0.48 0.45 0.46 0.45 0.45 0.46 0.45 0.45 0.45 0.45 0.44 0.44 0.44 0.44 0.44 0.42 0.41 0.41 0.41 0.41 0.39 0.41 0.43 0.44 0.39 0.27 0.26 0.22 0.29 0.33 0.33 0.33 0.42 0.52 0.55 0.60 0.55 0.53 0.56 0.77 0.66 0.68 0.82 0.97 1.03 0.94 1.02 0.99 1.14 1.21 1.22 1.12 1.00 0.87 0.90 1.02 1.01 1.05 1.09 1.07 1.03 1.02 0.78 0.77 0.75 0.86 0.84 0.82 0.74 0.80 0.79 0.83 0.83 0.84 1.03 1.06 1.16 1.28 1.34 1.39 1.37 1.35
0.52 0.53 0.52 0.51 0.49 0.47 0.47 0.47 0.47 0.46 0.46 0.45 0.45 0.45 0.44 0.44 0.44 0.44 0.43 0.43 0.42 0.42 0.43 0.44 0.44 0.43 0.41 0.40 0.44 0.43 0.37 0.25 0.23 0.36 0.54 0.54 0.39 0.35 0.41 0.48 0.47 0.48 0.45 0.45 0.49 0.66 0.91 0.97 1.02 1.09 1.05 0.90 0.94 1.02 0.98 1.13 1.03 1.07 1.00 0.88 0.88 0.99 0.97 1.03 1.07 1.12 1.10 0.99 0.85 0.79 0.79 0.80 0.65 0.68 0.81 0.76 0.77 0.81 0.86 0.94 0.93 0.92 1.12 1.22 1.29 1.33 1.27 1.25
0.50 0.50 0.49 0.48 0.46 0.47 0.47 0.48 0.47 0.45 0.46 0.45 0.45 0.44 0.43 0.43 0.43 0.42 0.42 0.42 0.42 0.42 0.43 0.44 0.45 0.46 0.44 0.44 0.43 0.43 0.28 0.14 0.37 0.52 0.53 0.47 0.45 0.44 0.43 0.43 0.43 0.41 0.37 0.37 0.45 0.60 0.86 0.96 1.03 1.09 1.04 0.87 0.90 0.91 0.89 1.06 1.06 1.00 0.89 0.91 0.91 0.95 0.93 1.01 1.08 1.16 1.11 1.09 0.99 0.83 0.73 0.71 0.71 0.68 0.78 0.75 0.67 0.71 0.84 1.02 1.07 1.02 1.16 1.22 1.24 1.25 1.20 1.18
0.49 0.48 0.46 0.44 0.45 0.45 0.45 0.45 0.45 0.45 0.45 0.44 0.43 0.44 0.44 0.43 0.42 0.42 0.42 0.42 0.42 0.42 0.42 0.44 0.46 0.45 0.46 0.46 0.42 0.38 0.23 0.11 0.36 0.50 0.60 0.55 0.48 0.46 0.47 0.44 0.40 0.36 0.34 0.35 0.38 0.51 0.70 0.81 0.93 0.95 0.96 0.83 0.84 0.74 0.77 0.92 1.04 0.80 0.85 0.87 0.94 0.95 0.89 0.99 1.07 1.11 1.13 1.03 0.93 0.78 0.78 0.72 0.71 0.61 0.75 0.76 0.70 0.79 0.95 1.07 1.13 1.13 1.23 1.29 1.27 1.23 1.13 1.13
0.49 0.47 0.45 0.44 0.41 0.42 0.41 0.41 0.42 0.42 0.43 0.44 0.44 0.43 0.41 0.41 0.41 0.41 0.41 0.41 0.41 0.41 0.42 0.44 0.45 0.46 0.46 0.46 0.47 0.36 0.22 0.16 0.25 0.43 0.44 0.51 0.51 0.49 0.49 0.46 0.45 0.39 0.33 0.29 0.33 0.46 0.62 0.68 0.78 0.82 0.85 0.83 0.76 0.73 0.77 0.92 0.95 0.81 0.74 0.83 0.87 0.91 0.93 0.97 1.02 1.08 1.07 1.02 0.96 0.87 0.78 0.70 0.67 0.63 0.73 0.69 0.76 0.92 1.01 1.10 1.14 1.18 1.22 1.29 1.19 1.18 1.12 1.11
0.49 0.47 0.45 0.42 0.41 0.39 0.39 0.38 0.39 0.40 0.41 0.42 0.42 0.42 0.42 0.40 0.41 0.40 0.40 0.40 0.40 0.41 0.43 0.45 0.46 0.46 0.51 0.37 0.28 0.24 0.26 0.19 0.25 0.36 0.45 0.49 0.50 0.52 0.54 0.49 0.42 0.37 0.31 0.26 0.28 0.37 0.59 0.64 0.68 0.80 0.73 0.67 0.71 0.70 0.74 0.69 0.78 0.80 0.80 0.85 0.86 0.89 0.94 0.93 1.01 1.03 1.01 1.07 1.07 0.98 0.80 0.72 0.69 0.64 0.76 0.67 0.77 0.94 1.03 1.13 1.15 1.15 1.18 1.23 1.15 1.14 1.13 1.13
0.50 0.47 0.44 0.44 0.42 0.41 0.39 0.38 0.38 0.39 0.39 0.38 0.39 0.40 0.40 0.41 0.40 0.40 0.40 0.40 0.40 0.41 0.42 0.45 0.46 0.51 0.55 0.41 0.22 0.18 0.17 0.29 0.35 0.41 0.52 0.53 0.51 0.55 0.49 0.39 0.41 0.29 0.26 0.28 0.30 0.36 0.57 0.61 0.71 0.76 0.63 0.64 0.71 0.70 0.71 0.65 0.56 0.62 0.69 0.78 0.82 0.84 0.87 0.91 0.96 0.94 1.02 1.08 1.04 0.98 0.89 0.81 0.78 0.81 0.70 0.73 0.92 1.00 1.05 1.10 1.10 1.08 1.08 1.15 1.12 1.12 1.09 1.10
0.55 0.50 0.47 0.44 0.44 0.42 0.41 0.40 0.39 0.37 0.37 0.38 0.37 0.37 0.37 0.38 0.40 0.40 0.40 0.40 0.40 0.40 0.42 0.45 0.49 0.53 0.45 0.35 0.29 0.16 0.24 0.36 0.38 0.43 0.57 0.53 0.52 0.50 0.46 0.38 0.36 0.28 0.24 0.26 0.29 0.35 0.51 0.61 0.66 0.77 0.72 0.66 0.69 0.66 0.70 0.65 0.58 0.62 0.67 0.69 0.73 0.79 0.82 0.86 0.91 0.95 0.92 0.89 1.01 0.95 0.91 0.86 0.86 0.82 0.67 0.73 0.93 0.99 1.01 1.03 1.07 1.04 0.99 1.11 1.09 1.08 1.09 1.09
0.61 0.56 0.51 0.48 0.45 0.43 0.42 0.41 0.41 0.39 0.38 0.37 0.35 0.34 0.35 0.36 0.37 0.39 0.40 0.41 0.41 0.41 0.43 0.46 0.53 0.53 0.36 0.41 0.22 0.15 0.27 0.30 0.54 0.62 0.58 0.52 0.52 0.51 0.53 0.38 0.41 0.34 0.26 0.28 0.28 0.33 0.52 0.64 0.71 0.72 0.67 0.59 0.61 0.57 0.58 0.62 0.64 0.61 0.60 0.73 0.72 0.77 0.78 0.82 0.78 0.94 0.88 0.86 0.94 0.93 0.93 0.96 0.93 0.79 0.68 0.74 0.87 0.96 0.98 1.02 1.04 1.01 0.97 1.05 1.09 1.08 1.08 1.08
0.63 0.60 0.57 0.54 0.50 0.45 0.43 0.42 0.41 0.41 0.40 0.37 0.35 0.34 0.34 0.34 0.34 0.35 0.38 0.41 0.41 0.42 0.44 0.48 0.54 0.52 0.44 0.31 0.24 0.19 0.31 0.32 0.36 0.37 0.53 0.58 0.56 0.52 0.56 0.52 0.46 0.40 0.33 0.29 0.31 0.33 0.48 0.61 0.66 0.62 0.51 0.61 0.51 0.55 0.53 0.61 0.58 0.57 0.57 0.52 0.68 0.78 0.73 0.79 0.77 0.81 0.82 0.82 0.93 0.94 0.93 0.87 0.87 0.71 0.75 0.80 0.93 0.94 0.94 0.96 0.97 0.96 0.96 1.01 1.05 1.06 1.06 1.04
0.65 0.63 0.60 0.57 0.54 0.50 0.47 0.45 0.42 0.41 0.39 0.38 0.37 0.36 0.34 0.32 0.32 0.33 0.36 0.38 0.41 0.43 0.46 0.52 0.56 0.55 0.40 0.22 0.23 0.29 0.30 0.29 0.29 0.36 0.38 0.43 0.45 0.47 0.47 0.46 0.49 0.52 0.45 0.36 0.37 0.38 0.48 0.55 0.60 0.55 0.56 0.49 0.48 0.48 0.57 0.58 0.55 0.54 0.52 0.49 0.47 0.50 0.59 0.72 0.78 0.76 0.79 0.82 0.83 0.83 0.64 0.75 0.81 0.82 0.76 0.76 0.90 0.95 0.94 0.92 0.93 0.93 0.95 0.98 0.99 1.03 1.04 1.05
0.69 0.66 0.63 0.60 0.57 0.55 0.52 0.48 0.45 0.42 0.39 0.38 0.38 0.37 0.35 0.32 0.32 0.32 0.35 0.38 0.40 0.44 0.52 0.59 0.61 0.53 0.39 0.19 0.25 0.29 0.33 0.35 0.34 0.32 0.36 0.39 0.36 0.37 0.45 0.44 0.41 0.46 0.58 0.53 0.44 0.46 0.44 0.46 0.49 0.50 0.53 0.47 0.44 0.52 0.50 0.50 0.53 0.47 0.50 0.46 0.41 0.41 0.42 0.60 0.68 0.74 0.64 0.80 0.80 0.78 0.59 0.70 0.83 0.85 0.83 0.82 0.85 0.91 0.88 0.90 0.91 0.92 0.94 0.95 0.97 0.99 0.98 0.95
0.70 0.68 0.66 0.63 0.59 0.57 0.54 0.52 0.48 0.44 0.41 0.38 0.37 0.36 0.35 0.33 0.32 0.34 0.37 0.39 0.41 0.47 0.54 0.62 0.60 0.46 0.31 0.24 0.41 0.40 0.45 0.47 0.34 0.28 0.30 0.32 0.34 0.35 0.39 0.45 0.40 0.37 0.43 0.45 0.47 0.49 0.51 0.48 0.38 0.37 0.38 0.46 0.48 0.43 0.39 0.39 0.41 0.42 0.38 0.36 0.41 0.40 0.44 0.53 0.67 0.72 0.62 0.76 0.79 0.71 0.60 0.68 0.78 0.89 0.87 0.89 0.88 0.93 0.88 0.87 0.88 0.92 0.94 0.93 0.94 0.95 0.95 0.88
0.72 0.69 0.67 0.65 0.62 0.60 0.57 0.55 0.51 0.48 0.44 0.40 0.37 0.35 0.34 0.34 0.35 0.38 0.40 0.40 0.43 0.50 0.57 0.45 0.46 0.47 0.36 0.24 0.28 0.52 0.48 0.37 0.32 0.33 0.34 0.35 0.36 0.34 0.37 0.37 0.43 0.40 0.35 0.36 0.41 0.45 0.48 0.50 0.42 0.34 0.35 0.40 0.40 0.39 0.38 0.36 0.36 0.38 0.36 0.36 0.37 0.39 0.43 0.49 0.60 0.70 0.68 0.75 0.78 0.69 0.61 0.70 0.73 0.90 0.91 0.95 0.93 0.97 0.89 0.84 0.83 0.84 0.91 0.91 0.90 0.93 0.92 0.87
0.75 0.72 0.69 0.65 0.62 0.60 0.59 0.57 0.53 0.51 0.47 0.43 0.40 0.35 0.34 0.35 0.39 0.41 0.43 0.47 0.50 0.54 0.48 0.33 0.63 0.58 0.25 0.37 0.55 0.35 0.32 0.38 0.45 0.43 0.34 0.34 0.35 0.34 0.35 0.35 0.35 0.36 0.36 0.32 0.33 0.36 0.40 0.41 0.44 0.41 0.36 0.32 0.37 0.39 0.35 0.32 0.31 0.33 0.37 0.35 0.38 0.37 0.43 0.40 0.60 0.64 0.68 0.69 0.68 0.72 0.68 0.67 0.78 0.89 0.94 0.96 0.95 0.93 0.85 0.79 0.78 0.81 0.88 0.89 0.90 0.92 0.91 0.86
0.77 0.75 0.72 0.68 0.64 0.61 0.60 0.57 0.55 0.52 0.50 0.46 0.42 0.39 0.35 0.39 0.49 0.57 0.59 0.59 0.60 0.55 0.53 0.53 0.50 0.42 0.25 0.34 0.26 0.25 0.35 0.30 0.36 0.39 0.40 0.38 0.35 0.34 0.34 0.32 0.32 0.34 0.33 0.28 0.30 0.27 0.32 0.30 0.38 0.32 0.33 0.30 0.31 0.35 0.31 0.27 0.29 0.30 0.32 0.32 0.34 0.38 0.41 0.43 0.48 0.59 0.64 0.69 0.65 0.67 0.68 0.69 0.75 0.84 0.94 0.97 0.96 0.91 0.85 0.76 0.75 0.78 0.83 0.87 0.87 0.89 0.91 0.89
0.78 0.76 0.74 0.72 0.68 0.65 0.61 0.59 0.54 0.52 0.52 0.50 0.47 0.45 0.48 0.62 0.65 0.63 0.59 0.60 0.50 0.42 0.30 0.30 0.33 0.16 0.11 0.35 0.44 0.47 0.47 0.50 0.42 0.40 0.36 0.37 0.36 0.36 0.37 0.37 0.34 0.30 0.25 0.24 0.24 0.23 0.28 0.26 0.31 0.28 0.25 0.27 0.28 0.30 0.31 0.33 0.36 0.34 0.34 0.33 0.33 0.35 0.40 0.43 0.52 0.62 0.63 0.66 0.63 0.66 0.63 0.68 0.74 0.79 0.86 0.94 0.99 0.94 0.85 0.78 0.76 0.77 0.83 0.85 0.85 0.86 0.89 0.89
0.80 0.77 0.76 0.74 0.72 0.68 0.64 0.60 0.55 0.52 0.54 0.51 0.46 0.44 0.53 0.41 0.37 0.48 0.62 0.56 0.44 0.40 0.40 0.44 0.45 0.36 0.31 0.31 0.32 0.46 0.53 0.50 0.39 0.38 0.39 0.43 0.37 0.32 0.34 0.37 0.34 0.31 0.28 0.21 0.24 0.22 0.28 0.19 0.18 0.18 0.21 0.27 0.30 0.32 0.34 0.37 0.37 0.37 0.36 0.36 0.39 0.42 0.44 0.51 0.53 0.61 0.65 0.64 0.64 0.68 0.68 0.73 0.75 0.77 0.83 0.90 0.95 0.94 0.87 0.78 0.74 0.76 0.80 0.83 0.83 0.88 0.90 0.90
0.82 0.80 0.77 0.76 0.73 0.70 0.66 0.62 0.56 0.54 0.58 0.58 0.53 0.47 0.34 0.37 0.27 0.25 0.29 0.30 0.32 0.35 0.32 0.29 0.36 0.42 0.34 0.34 0.40 0.44 0.45 0.41 0.37 0.37 0.37 0.47 0.38 0.31 0.26 0.29 0.31 0.26 0.25 0.26 0.23 0.28 0.25 0.19 0.15 0.18 0.21 0.25 0.29 0.34 0.36 0.36 0.38 0.37 0.36 0.34 0.37 0.40 0.42 0.49 0.53 0.61 0.65 0.59 0.64 0.69 0.69 0.74 0.80 0.83 0.85 0.89 0.90 0.87 0.86 0.80 0.74 0.75 0.80 0.83 0.83 0.86 0.90 0.92
0.83 0.80 0.79 0.76 0.75 0.70 0.68 0.63 0.57 0.58 0.64 0.61 0.55 0.44 0.45 0.49 0.41 0.41 0.34 0.25 0.28 0.28 0.26 0.25 0.26 0.25 0.32 0.37 0.37 0.47 0.49 0.40 0.39 0.37 0.41 0.43 0.37 0.26 0.26 0.23 0.24 0.22 0.25 0.25 0.25 0.24 0.20 0.15 0.17 0.18 0.21 0.22 0.26 0.30 0.34 0.34 0.33 0.36 0.36 0.36 0.35 0.38 0.43 0.50 0.53 0.61 0.63 0.61 0.61 0.67 0.66 0.71 0.80 0.85 0.86 0.86 0.89 0.92 0.92 0.88 0.81 0.78 0.80 0.84 0.85 0.84 0.89 0.94
0.82 0.80 0.79 0.79 0.75 0.72 0.69 0.65 0.58 0.65 0.59 0.50 0.45 0.45 0.43 0.46 0.49 0.46 0.39 0.31 0.26 0.30 0.26 0.25 0.22 0.21 0.20 0.23 0.25 0.35 0.33 0.31 0.31 0.36 0.37 0.39 0.35 0.27 0.25 0.22 0.21 0.21 0.25 0.24 0.20 0.20 0.16 0.16 0.17 0.20 0.20 0.20 0.20 0.25 0.28 0.32 0.34 0.34 0.36 0.35 0.33 0.39 0.41 0.41 0.48 0.55 0.61 0.60 0.60 0.65 0.63 0.69 0.79 0.87 0.87 0.91 0.94 0.97 0.98 0.95 0.91 0.86 0.81 0.83 0.83 0.85 0.87 0.89
0.80 0.78 0.78 0.78 0.77 0.73 0.70 0.62 0.64 0.63 0.49 0.48 0.48 0.46 0.51 0.51 0.48 0.45 0.35 0.27 0.25 0.29 0.30 0.28 0.26 0.23 0.21 0.19 0.21 0.21 0.23 0.27 0.32 0.30 0.41 0.38 0.29 0.28 0.22 0.22 0.21 0.21 0.20 0.23 0.21 0.20 0.17 0.19 0.21 0.20 0.21 0.20 0.17 0.20 0.25 0.27 0.29 0.35 0.35 0.35 0.34 0.39 0.41 0.41 0.44 0.51 0.60 0.65 0.64 0.65 0.64 0.67 0.74 0.77 0.82 0.89 0.95 0.95 0.97 0.96 0.96 0.94 0.91 0.89 0.89 0.90 0.91 0.90
0.78 0.77 0.78 0.78 0.77 0.77 0.69 0.64 0.66 0.53 0.53 0.50 0.52 0.58 0.58 0.54 0.49 0.45 0.34 0.30 0.30 0.29 0.37 0.32 0.31 0.27 0.25 0.26 0.23 0.18 0.19 0.23 0.29 0.32 0.38 0.38 0.32 0.30 0.24 0.25 0.22 0.19 0.19 0.23 0.24 0.21 0.20 0.23 0.25 0.21 0.18 0.18 0.17 0.17 0.20 0.24 0.25 0.31 0.36 0.35 0.37 0.41 0.39 0.42 0.45 0.47 0.51 0.54 0.60 0.63 0.54 0.57 0.68 0.71 0.77 0.85 0.88 0.88 0.96 0.94 0.92 0.94 0.92 0.91 0.87 0.87 0.92 0.96
0.77 0.77 0.78 0.78 0.77 0.78 0.73 0.57 0.62 0.52 0.52 0.51 0.55 0.59 0.59 0.56 0.52 0.45 0.39 0.28 0.21 0.28 0.33 0.25 0.33 0.25 0.31 0.23 0.22 0.20 0.20 0.17 0.23 0.30 0.34 0.38 0.40 0.31 0.28 0.23 0.21 0.17 0.20 0.20 0.21 0.23 0.22 0.23 0.23 0.21 0.19 0.16 0.15 0.15 0.16 0.20 0.23 0.25 0.27 0.36 0.39 0.39 0.39 0.40 0.43 0.46 0.46 0.46 0.60 0.65 0.51 0.50 0.68 0.66 0.71 0.78 0.82 0.83 0.90 0.92 0.93 0.94 0.95 0.92 0.90 0.90 0.90 0.93
0.79 0.78 0.77 0.77 0.75 0.78 0.63 0.49 0.60 0.59 0.45 0.47 0.59 0.62 0.58 0.54 0.53 0.47 0.36 0.26 0.21 0.30 0.26 0.32 0.29 0.27 0.30 0.26 0.22 0.21 0.13 0.14 0.20 0.26 0.28 0.32 0.32 0.35 0.24 0.20 0.19 0.20 0.24 0.24 0.21 0.18 0.24 0.24 0.22 0.21 0.20 0.17 0.15 0.12 0.15 0.16 0.19 0.20 0.27 0.32 0.34 0.36 0.37 0.40 0.41 0.41 0.44 0.54 0.60 0.62 0.58 0.50 0.56 0.65 0.73 0.78 0.78 0.80 0.82 0.87 0.91 0.93 0.94 0.93 0.92 0.92 0.90 0.93
0.78 0.76 0.75 0.76 0.74 0.72 0.67 0.70 0.63 0.53 0.51 0.54 0.61 0.61 0.58 0.53 0.52 0.50 0.35 0.20 0.18 0.34 0.26 0.29 0.31 0.34 0.29 0.28 0.25 0.19 0.18 0.21 0.17 0.20 0.23 0.26 0.29 0.31 0.24 0.19 0.17 0.17 0.22 0.24 0.15 0.17 0.21 0.22 0.22 0.19 0.19 0.17 0.15 0.15 0.15 0.15 0.16 0.19 0.27 0.31 0.31 0.32 0.35 0.40 0.40 0.38 0.39 0.41 0.44 0.52 0.58 0.51 0.49 0.62 0.77 0.79 0.74 0.78 0.79 0.84 0.87 0.91 0.94 0.95 0.94 0.93 0.94 0.93
0.76 0.75 0.72 0.73 0.73 0.67 0.70 0.71 0.65 0.57 0.59 0.60 0.59 0.60 0.55 0.56 0.48 0.38 0.29 0.20 0.30 0.31 0.38 0.28 0.41 0.31 0.29 0.28 0.24 0.22 0.20 0.22 0.18 0.22 0.26 0.26 0.26 0.24 0.21 0.19 0.20 0.20 0.22 0.23 0.18 0.21 0.22 0.21 0.24 0.19 0.19 0.16 0.18 0.18 0.16 0.15 0.14 0.18 0.25 0.31 0.32 0.34 0.34 0.37 0.37 0.37 0.37 0.35 0.33 0.44 0.52 0.45 0.48 0.58 0.67 0.76 0.73 0.75 0.81 0.85 0.90 0.93 0.95 0.95 0.96 0.97 0.97 0.99
0.72 0.72 0.70 0.70 0.69 0.62 0.62 0.64 0.57 0.61 0.63 0.61 0.60 0.61 0.53 0.44 0.40 0.30 0.24 0.18 0.32 0.25 0.33 0.33 0.32 0.29 0.29 0.24 0.24 0.24 0.21 0.20 0.23 0.25 0.26 0.24 0.24 0.24 0.22 0.24 0.20 0.20 0.21 0.23 0.22 0.22 0.24 0.26 0.25 0.24 0.20 0.19 0.19 0.19 0.18 0.16 0.15 0.18 0.21 0.24 0.28 0.31 0.33 0.36 0.35 0.35 0.34 0.29 0.31 0.43 0.49 0.46 0.40 0.53 0.61 0.64 0.67 0.74 0.85 0.90 0.91 0.95 1.00 0.99 0.99 0.98 0.99 0.99
0.65 0.66 0.66 0.67 0.57 0.61 0.64 0.53 0.51 0.66 0.65 0.60 0.62 0.55 0.45 0.42 0.32 0.26 0.20 0.24 0.33 0.31 0.37 0.35 0.31 0.34 0.28 0.24 0.22 0.25 0.24 0.23 0.22 0.24 0.23 0.26 0.24 0.23 0.21 0.19 0.22 0.20 0.19 0.21 0.21 0.21 0.21 0.25 0.24 0.24 0.25 0.23 0.21 0.19 0.20 0.19 0.17 0.15 0.17 0.20 0.24 0.26 0.30 0.31 0.31 0.32 0.27 0.26 0.32 0.38 0.43 0.49 0.37 0.46 0.59 0.68 0.75 0.80 0.82 0.82 0.86 0.88 0.94 1.01 1.03 1.00 0.99 1.02
0.57 0.58 0.59 0.60 0.58 0.66 0.53 0.47 0.49 0.57 0.57 0.61 0.59 0.45 0.42 0.29 0.30 0.22 0.21 0.36 0.26 0.29 0.31 0.31 0.34 0.32 0.30 0.29 0.26 0.24 0.23 0.25 0.24 0.22 0.22 0.22 0.22 0.20 0.19 0.16 0.17 0.14 0.14 0.15 0.16 0.20 0.20 0.20 0.23 0.25 0.26 0.24 0.21 0.18 0.19 0.19 0.17 0.15 0.15 0.18 0.19 0.20 0.24 0.22 0.25 0.23 0.23 0.22 0.32 0.37 0.37 0.35 0.42 0.50 0.58 0.66 0.71 0.75 0.79 0.83 0.86 0.88 0.89 0.98 1.05 1.02 1.00 1.02
0.50 0.50 0.50 0.53 0.58 0.55 0.56 0.56 0.56 0.59 0.64 0.61 0.54 0.49 0.35 0.28 0.20 0.24 0.27 0.31 0.27 0.32 0.30 0.35 0.34 0.34 0.33 0.30 0.27 0.26 0.27 0.23 0.27 0.24 0.25 0.24 0.23 0.21 0.22 0.19 0.21 0.17 0.12 0.15 0.15 0.18 0.19 0.22 0.23 0.23 0.25 0.25 0.23 0.17 0.16 0.15 0.16 0.14 0.13 0.15 0.17 0.16 0.19 0.18 0.20 0.22 0.22 0.25 0.28 0.31 0.36 0.30 0.34 0.41 0.51 0.51 0.59 0.68 0.75 0.80 0.85 0.87 0.87 0.90 0.96 1.01 1.02 1.05
0.47 0.45 0.40 0.42 0.52 0.54 0.56 0.61 0.58 0.62 0.59 0.60 0.47 0.39 0.34 0.25 0.21 0.31 0.28 0.32 0.32 0.37 0.35 0.32 0.33 0.32 0.34 0.30 0.29 0.31 0.26 0.29 0.29 0.25 0.26 0.24 0.23 0.20 0.20 0.21 0.22 0.21 0.19 0.18 0.15 0.16 0.15 0.16 0.20 0.23 0.20 0.25 0.23 0.20 0.17 0.16 0.17 0.15 0.14 0.14 0.15 0.17 0.17 0.15 0.17 0.16 0.18 0.22 0.27 0.29 0.27 0.25 0.26 0.28 0.45 0.52 0.58 0.66 0.74 0.79 0.85 0.89 0.91 0.91 0.97 1.06 1.09 1.08
0.46 0.40 0.42 0.38 0.43 0.50 0.53 0.56 0.58 0.63 0.61 0.49 0.42 0.32 0.24 0.22 0.27 0.26 0.28 0.31 0.35 0.38 0.37 0.38 0.33 0.30 0.29 0.31 0.34 0.34 0.33 0.29 0.32 0.28 0.25 0.26 0.22 0.22 0.19 0.19 0.22 0.23 0.23 0.17 0.19 0.18 0.16 0.17 0.22 0.23 0.23 0.25 0.23 0.25 0.23 0.18 0.17 0.17 0.16 0.16 0.14 0.14 0.21 0.18 0.21 0.19 0.21 0.22 0.22 0.25 0.25 0.30 0.29 0.41 0.47 0.51 0.56 0.60 0.68 0.77 0.82 0.85 0.91 0.93 0.94 0.97 1.02 1.07
0.44 0.35 0.37 0.34 0.41 0.48 0.53 0.55 0.62 0.66 0.54 0.44 0.33 0.26 0.22 0.25 0.24 0.31 0.32 0.37 0.35 0.32 0.31 0.33 0.31 0.29 0.28 0.28 0.32 0.33 0.38 0.33 0.32 0.31 0.27 0.28 0.29 0.25 0.26 0.24 0.24 0.25 0.22 0.18 0.19 0.17 0.19 0.16 0.23 0.26 0.25 0.24 0.24 0.26 0.24 0.22 0.13 0.14 0.14 0.12 0.11 0.16 0.22 0.22 0.23 0.26 0.25 0.22 0.19 0.26 0.28 0.31 0.36 0.37 0.42 0.48 0.50 0.55 0.63 0.70 0.75 0.80 0.89 0.93 0.94 0.97 1.01 1.06
0.37 0.38 0.27 0.42 0.52 0.61 0.58 0.55 0.59 0.60 0.54 0.40 0.31 0.22 0.27 0.28 0.31 0.31 0.32 0.33 0.33 0.33 0.30 0.25 0.27 0.28 0.27 0.26 0.28 0.30 0.33 0.36 0.34 0.29 0.26 0.31 0.30 0.32 0.30 0.30 0.32 0.29 0.27 0.25 0.21 0.23 0.19 0.19 0.23 0.24 0.22 0.25 0.26 0.26 0.25 0.23 0.20 0.16 0.12 0.13 0.17 0.20 0.22 0.22 0.19 0.20 0.22 0.20 0.20 0.20 0.22 0.26 0.27 0.24 0.33 0.41 0.46 0.50 0.58 0.64 0.71 0.76 0.84 0.88 0.93 0.99 1.05 1.12
0.40 0.36 0.32 0.42 0.49 0.59 0.65 0.63 0.62 0.59 0.49 0.38 0.26 0.28 0.34 0.27 0.31 0.30 0.35 0.35 0.35 0.35 0.29 0.26 0.26 0.30 0.26 0.27 0.27 0.29 0.32 0.32 0.32 0.31 0.26 0.30 0.27 0.36 0.34 0.32 0.35 0.33 0.31 0.30 0.24 0.23 0.23 0.17 0.21 0.25 0.25 0.26 0.26 0.25 0.23 0.24 0.22 0.16 0.15 0.18 0.14 0.13 0.13 0.19 0.20 0.18 0.17 0.17 0.17 0.21 0.22 0.23 0.25 0.27 0.34 0.34 0.41 0.49 0.54 0.60 0.65 0.71 0.78 0.84 0.92 0.98 1.05 1.12
0.42 0.37 0.21 0.44 0.50 0.61 0.63 0.64 0.61 0.53 0.45 0.34 0.29 0.27 0.31 0.33 0.36 0.35 0.36 0.38 0.38 0.34 0.30 0.30 0.27 0.29 0.28 0.26 0.26 0.29 0.31 0.29 0.32 0.32 0.28 0.29 0.26 0.33 0.35 0.36 0.34 0.37 0.36 0.34 0.27 0.25 0.25 0.17 0.17 0.26 0.28 0.28 0.27 0.23 0.18 0.20 0.22 0.20 0.19 0.17 0.17 0.14 0.14 0.13 0.18 0.17 0.21 0.18 0.18 0.17 0.21 0.22 0.27 0.26 0.35 0.40 0.44 0.49 0.54 0.57 0.60 0.67 0.75 0.81 0.88 0.94 0.97 1.03
0.36 0.28 0.18 0.31 0.47 0.61 0.60 0.56 0.52 0.51 0.42 0.29 0.31 0.32 0.37 0.33 0.35 0.38 0.38 0.36 0.34 0.35 0.31 0.30 0.31 0.28 0.28 0.28 0.28 0.25 0.28 0.30 0.32 0.32 0.32 0.31 0.29 0.35 0.34 0.38 0.36 0.37 0.37 0.36 0.30 0.28 0.23 0.23 0.17 0.19 0.29 0.30 0.23 0.24 0.21 0.21 0.18 0.17 0.15 0.14 0.16 0.16 0.18 0.18 0.17 0.18 0.16 0.16 0.18 0.18 0.17 0.19 0.27 0.37 0.35 0.37 0.44 0.48 0.53 0.55 0.57 0.60 0.71 0.80 0.83 0.86 0.90 0.92
0.40 0.30 0.22 0.40 0.49 0.54 0.60 0.48 0.42 0.39 0.36 0.38 0.38 0.36 0.39 0.37 0.41 0.43 0.44 0.45 0.40 0.42 0.37 0.34 0.32 0.29 0.29 0.28 0.27 0.28 0.26 0.27 0.28 0.30 0.32 0.32 0.31 0.28 0.34 0.36 0.38 0.37 0.38 0.35 0.31 0.31 0.24 0.22 0.19 0.20 0.21 0.23 0.26 0.29 0.29 0.26 0.22 0.18 0.14 0.12 0.14 0.14 0.13 0.12 0.12 0.16 0.16 0.16 0.14 0.16 0.15 0.22 0.30 0.31 0.34 0.37 0.40 0.47 0.52 0.54 0.56 0.58 0.64 0.71 0.77 0.82 0.84 0.86
0.34 0.21 0.17 0.36 0.44 0.49 0.45 0.37 0.37 0.43 0.39 0.31 0.29 0.34 0.31 0.37 0.34 0.35 0.38 0.42 0.42 0.39 0.46 0.41 0.39 0.37 0.33 0.30 0.29 0.29 0.28 0.27 0.26 0.26 0.31 0.31 0.33 0.32 0.36 0.39 0.39 0.40 0.37 0.31 0.29 0.32 0.30 0.25 0.22 0.19 0.19 0.21 0.27 0.32 0.33 0.32 0.29 0.24 0.20 0.15 0.14 0.15 0.15 0.12 0.10 0.14 0.16 0.16 0.18 0.19 0.17 0.19 0.30 0.40 0.37 0.35 0.41 0.48 0.52 0.56 0.57 0.59 0.60 0.64 0.71 0.81 0.84 0.86
0.32 0.25 0.32 0.35 0.38 0.44 0.37 0.29 0.33 0.34 0.33 0.36 0.39 0.37 0.38 0.35 0.33 0.33 0.33 0.34 0.33 0.37 0.37 0.39 0.38 0.37 0.37 0.36 0.32 0.30 0.30 0.27 0.27 0.26 0.27 0.31 0.34 0.34 0.36 0.37 0.37 0.39 0.39 0.36 0.34 0.33 0.34 0.28 0.22 0.20 0.23 0.24 0.27 0.32 0.33 0.32 0.30 0.26 0.23 0.22 0.18 0.14 0.14 0.13 0.13 0.15 0.16 0.17 0.16 0.17 0.15 0.16 0.24 0.31 0.41 0.45 0.45 0.49 0.53 0.55 0.56 0.58 0.61 0.65 0.69 0.75 0.80 0.86
0.36 0.32 0.27 0.32 0.43 0.47 0.33 0.23 0.23 0.27 0.30 0.32 0.31 0.26 0.26 0.25 0.29 0.29 0.29 0.31 0.31 0.32 0.33 0.34 0.38 0.41 0.38 0.39 0.38 0.32 0.34 0.27 0.29 0.28 0.28 0.30 0.29 0.33 0.37 0.36 0.37 0.35 0.37 0.36 0.32 0.34 0.28 0.28 0.26 0.22 0.19 0.20 0.22 0.28 0.29 0.30 0.29 0.25 0.23 0.23 0.21 0.18 0.15 0.15 0.14 0.18 0.14 0.15 0.17 0.16 0.13 0.15 0.24 0.26 0.33 0.42 0.44 0.45 0.52 0.56 0.58 0.61 0.65 0.62 0.62 0.75 0.80 0.81
0.38 0.37 0.32 0.35 0.39 0.38 0.29 0.33 0.28 0.27 0.25 0.22 0.20 0.21 0.23 0.24 0.28 0.28 0.28 0.27 0.34 0.36 0.37 0.35 0.37 0.43 0.42 0.43 0.41 0.40 0.37 0.33 0.28 0.31 0.29 0.30 0.29 0.32 0.31 0.32 0.35 0.34 0.35 0.38 0.38 0.39 0.31 0.30 0.27 0.22 0.18 0.15 0.15 0.16 0.20 0.22 0.23 0.24 0.26 0.25 0.23 0.20 0.17 0.14 0.12 0.13 0.14 0.15 0.16 0.16 0.16 0.18 0.24 0.29 0.28 0.32 0.40 0.44 0.47 0.58 0.62 0.62 0.59 0.58 0.60 0.68 0.76 0.80
0.34 0.22 0.27 0.30 0.36 0.37 0.33 0.32 0.28 0.26 0.23 0.22 0.21 0.23 0.28 0.31 0.35 0.37 0.41 0.38 0.42 0.41 0.41 0.40 0.40 0.43 0.44 0.42 0.38 0.36 0.36 0.43 0.38 0.31 0.30 0.29 0.30 0.31 0.32 0.36 0.37 0.34 0.37 0.37 0.39 0.38 0.33 0.33 0.30 0.27 0.23 0.20 0.19 0.21 0.29 0.31 0.26 0.24 0.24 0.26 0.24 0.21 0.20 0.16 0.14 0.12 0.11 0.14 0.18 0.19 0.17 0.22 0.27 0.27 0.28 0.27 0.34 0.41 0.44 0.48 0.56 0.60 0.63 0.59 0.60 0.67 0.74 0.77
0.42 0.29 0.27 0.24 0.31 0.32 0.30 0.37 0.35 0.37 0.33 0.39 0.30 0.34 0.29 0.31 0.32 0.30 0.37 0.33 0.41 0.40 0.38 0.38 0.40 0.37 0.38 0.40 0.39 0.38 0.42 0.42 0.41 0.36 0.38 0.39 0.40 0.39 0.38 0.35 0.34 0.32 0.37 0.39 0.44 0.40 0.36 0.31 0.31 0.29 0.27 0.27 0.28 0.25 0.27 0.32 0.30 0.27 0.26 0.25 0.27 0.25 0.22 0.19 0.15 0.11 0.13 0.13 0.13 0.17 0.22 0.19 0.21 0.30 0.35 0.34 0.34 0.35 0.42 0.44 0.49 0.59 0.65 0.67 0.65 0.68 0.75 0.80
0.32 0.37 0.40 0.44 0.32 0.26 0.26 0.28 0.36 0.35 0.37 0.37 0.32 0.35 0.29 0.29 0.29 0.27 0.29 0.34 0.39 0.42 0.35 0.36 0.39 0.39 0.40 0.41 0.43 0.38 0.39 0.41 0.42 0.37 0.40 0.40 0.36 0.36 0.34 0.36 0.38 0.37 0.36 0.45 0.44 0.39 0.37 0.33 0.33 0.32 0.30 0.30 0.30 0.31 0.31 0.29 0.32 0.32 0.29 0.28 0.27 0.27 0.25 0.20 0.18 0.17 0.14 0.12 0.11 0.14 0.17 0.18 0.23 0.24 0.28 0.36 0.44 0.44 0.41 0.43 0.43 0.61 0.72 0.69 0.72 0.74 0.75 0.81
0.44 0.40 0.39 0.45 0.33 0.34 0.34 0.36 0.38 0.36 0.35 0.37 0.35 0.34 0.29 0.29 0.29 0.34 0.35 0.31 0.32 0.32 0.38 0.31 0.32 0.38 0.39 0.43 0.43 0.42 0.43 0.35 0.35 0.42 0.40 0.38 0.38 0.38 0.35 0.34 0.35 0.42 0.41 0.51 0.51 0.40 0.39 0.35 0.36 0.35 0.32 0.31 0.31 0.30 0.31 0.31 0.30 0.33 0.31 0.29 0.29 0.28 0.26 0.23 0.21 0.21 0.19 0.16 0.13 0.14 0.16 0.17 0.20 0.25 0.32 0.35 0.43 0.45 0.51 0.52 0.52 0.50 0.62 0.73 0.74 0.76 0.78 0.84
0.39 0.39 0.37 0.46 0.45 0.40 0.38 0.38 0.37 0.35 0.31 0.34 0.31 0.33 0.32 0.30 0.28 0.31 0.33 0.33 0.29 0.29 0.37 0.34 0.35 0.38 0.42 0.43 0.45 0.42 0.45 0.47 0.45 0.41 0.44 0.42 0.39 0.42 0.39 0.38 0.38 0.40 0.45 0.50 0.51 0.51 0.34 0.36 0.37 0.38 0.35 0.33 0.31 0.31 0.31 0.30 0.30 0.31 0.31 0.30 0.29 0.28 0.26 0.26 0.25 0.22 0.22 0.20 0.19 0.17 0.15 0.14 0.18 0.20 0.24 0.32 0.39 0.44 0.47 0.53 0.54 0.53 0.53 0.62 0.69 0.79 0.83 0.85
0.53 0.53 0.52 0.42 0.34 0.36 0.39 0.40 0.36 0.34 0.30 0.31 0.30 0.32 0.32 0.33 0.32 0.35 0.33 0.37 0.33 0.31 0.34 0.34 0.38 0.39 0.44 0.43 0.43 0.45 0.50 0.51 0.50 0.49 0.48 0.45 0.39 0.45 0.42 0.40 0.46 0.40 0.44 0.51 0.51 0.51 0.44 0.35 0.40 0.38 0.34 0.32 0.37 0.33 0.32 0.31 0.31 0.31 0.32 0.32 0.30 0.28 0.26 0.26 0.25 0.24 0.22 0.20 0.20 0.19 0.18 0.16 0.17 0.23 0.22 0.24 0.34 0.39 0.40 0.47 0.53 0.56 0.56 0.61 0.67 0.74 0.84 0.91
0.60 0.62 0.60 0.51 0.36 0.39 0.36 0.37 0.36 0.34 0.28 0.33 0.34 0.35 0.34 0.34 0.36 0.40 0.34 0.38 0.39 0.39 0.38 0.39 0.42 0.42 0.42 0.43 0.42 0.46 0.51 0.53 0.54 0.54 0.54 0.52 0.53 0.52 0.52 0.50 0.50 0.47 0.45 0.47 0.56 0.50 0.51 0.42 0.35 0.37 0.33 0.32 0.36 0.41 0.35 0.34 0.32 0.29 0.28 0.30 0.35 0.32 0.31 0.29 0.27 0.27 0.25 0.23 0.20 0.19 0.18 0.20 0.21 0.23 0.22 0.24 0.25 0.33 0.38 0.40 0.47 0.57 0.62 0.62 0.68 0.76 0.84 0.97
Wind_Speed
15 15 16 16 16 16 16 16 16 16 16 16 16 16 16 16 16 15 15 15 15 15 15 16 16 16 15 15 14 15 15 14 14 13 12 12 12 13 13 12 12 14 14 12 13 13 14 14 13 13 11 9 8 8 9 7 4 2 1 2 2 2 2 2 2 3 1 1 1 3 5 4 6 7 6 6 6 7 8 7 7 7 8 9 11 14 15 15
16 16 16 16 16 16 16 16 16 16 16 16 16 16 16 16 16 16 16 15 15 15 15 15 16 16 15 15 14 14 14 13 14 14 14 13 13 14 14 13 13 14 14 13 14 14 15 14 14 13 11 10 8 9 10 8 5 2 0 1 2 3 4 4 4 4 3 2 3 5 5 4 6 6 5 6 7 7 7 8 8 9 10 11 12 14 15 15
16 16 16 16 16 16 16 16 16 16 16 16 16 16 16 16 16 16 16 16 16 16 15 15 15 15 15 15 14 14 13 12 13 12 11 10 11 13 13 13 14 14 14 14 15 15 15 15 14 13 12 10 9 10 11 9 6 4 2 1 1 3 5 6 5 4 4 3 3 5 4 5 5 4 5 7 7 6 6 8 9 10 11 12 13 14 15 15
16 16 16 16 16 16 16 16 16 17 17 17 17 17 17 17 17 17 16 16 16 16 16 16 15 15 15 14 14 13 12 11 11 8 6 5 8 11 12 13 13 14 15 15 15 16 16 15 15 14 12 10 10 11 12 11 7 5 5 3 2 3 3 4 3 2 4 5 3 5 5 6 5 4 7 8 6 5 6 8 10 11 12 13 13 14 14 14
16 16 16 16 16 16 17 17 17 17 17 17 17 17 17 17 17 17 17 17 16 16 16 16 16 15 14 14 12 11 10 8 7 6 5 5 6 9 11 12 13 13 14 15 15 16 17 16 15 14 12 10 10 11 11 13 10 7 7 6 4 3 2 2 2 4 7 6 4 6 5 5 5 5 8 9 5 4 7 9 10 11 12 13 13 14 14 14
16 16 16 16 16 17 17 17 17 17 18 17 17 17 17 17 17 17 17 17 17 16 16 16 16 15 15 14 11 10 8 7 7 6 6 6 6 8 10 11 12 13 14 15 16 16 17 16 15 15 13 11 11 11 11 14 13 9 9 9 7 5 3 1 4 6 6 5 4 5 5 5 4 4 8 9 6 7 10 11 10 10 11 12 13 13 14 14
17 17 17 17 17 17 17 17 18 18 18 18 18 18 18 18 18 18 17 17 17 17 16 16 15 15 14 13 10 9 8 10 11 10 10 9 9 9 10 10 12 13 15 16 16 17 17 17 16 15 13 12 12 12 13 14 15 12 10 10 9 8 6 4 6 7 5 5 4 4 5 5 4 4 7 7 7 10 12 10 10 9 10 12 12 13 14 14
17 17 17 17 18 18 18 18 18 18 18 18 18 18 18 18 18 18 18 17 17 17 16 16 15 14 13 11 10 10 10 11 12 12 12 12 12 11 11 11 12 13 15 16 17 17 17 17 17 16 13 13 12 12 13 12 12 14 13 12 11 10 9 7 8 8 8 8 5 5 4 6 6 4 5 3 6 13 12 10 10 9 11 12 13 13 13 14
18 18 18 18 18 18 18 18 18 19 19 18 18 19 19 18 18 18 18 18 18 17 16 16 15 14 12 11 10 10 10 11 11 11 11 12 12 11 11 12 13 14 16 16 17 18 18 17 18 16 14 13 13 12 12 10 9 11 12 13 13 12 11 8 8 9 10 10 7 6 5 6 6 4 4 3 9 13 11 10 10 9 11 12 13 13 13 14
18 18 18 19 19 19 19 19 19 19 19 19 19 19 19 19 18 18 18 18 18 17 17 16 15 13 12 11 10 9 9 10 10 10 10 10 11 11 11 12 13 14 15 16 17 19 19 18 17 16 15 14 13 13 13 12 10 9 10 14 14 13 11 8 8 10 10 10 9 8 6 7 6 5 6 7 11 11 10 10 10 10 10 12 13 13 13 14
19 19 19 19 19 19 19 20 20 20 20 20 20 20 19 19 19 19 18 18 18 17 16 16 15 13 12 12 10 9 8 8 7 7 9 10 10 11 11 12 13 14 15 16 17 19 20 19 17 16 15 14 14 13 14 14 12 12 12 14 15 14 12 9 9 11 10 10 11 9 6 7 7 6 7 9 11 10 10 9 9 10 10 12 13 13 14 14
19 20 20 20 20 20 20 20 20 20 20 20 20 20 20 19 19 19 19 18 17 17 16 15 14 13 13 13 13 12 10 9 8 9 10 11 11 11 12 12 14 15 15 16 17 19 20 20 18 17 15 14 14 13 13 14 14 15 13 13 14 14 13 13 11 10 10 10 13 9 6 8 7 7 9 11 12 9 9 9 10 10 10 12 12 13 14 13
20 20 20 21 20 20 21 21 20 21 21 21 21 20 20 19 19 19 18 18 17 17 16 15 14 13 13 13 13 14 14 14 12 12 12 12 13 13 13 13 14 16 16 16 17 18 20 20 19 19 17 15 14 12 11 12 12 12 12 12 13 14 14 16 13 10 11 12 15 11 7 9 9 8 10 11 11 10 9 9 10 10 10 12 12 12 14 14
20 21 21 21 21 21 21 21 21 21 21 21 21 21 20 20 19 19 18 17 17 16 15 15 13 13 13 13 13 15 16 16 15 14 14 13 14 14 14 14 14 16 17 17 17 18 19 20 20 19 19 17 15 13 13 12 11 10 12 12 13 13 13 14 14 10 10 13 16 11 8 10 10 10 12 12 11 11 10 9 10 10 11 12 12 13 14 14
21 21 22 22 22 22 22 22 22 22 22 22 22 22 21 20 20 19 18 17 16 15 14 14 13 13 14 15 16 16 15 15 16 16 15 14 15 14 14 15 15 16 17 18 18 17 18 19 20 19 19 19 17 15 13 12 11 10 11 12 12 13 12 11 14 12 9 12 15 11 9 10 10 11 13 13 12 12 11 10 10 10 11 12 12 13 14 14
22 22 23 22 22 22 22 22 22 23 23 23 23 22 22 21 20 19 18 17 15 14 13 12 12 12 13 13 13 13 12 13 14 15 15 15 15 14 14 15 16 16 17 18 18 18 19 19 19 20 19 19 17 16 13 12 12 10 11 12 11 12 12 10 12 13 9 11 14 11 10 10 10 11 13 13 12 13 12 12 11 11 12 12 12 13 14 14
23 23 23 23 23 23 23 23 23 23 24 24 23 22 22 21 20 18 17 16 15 14 13 12 11 12 13 12 12 12 12 13 13 13 14 15 14 14 14 14 15 16 17 18 19 19 19 19 18 19 19 18 17 16 15 13 13 11 10 12 12 13 12 10 11 12 10 12 13 11 9 10 10 11 13 14 12 13 13 13 13 12 12 13 12 13 14 14
23 24 24 24 23 24 24 24 24 24 24 24 23 23 22 20 18 16 14 13 13 12 13 13 11 11 12 11 11 11 12 13 13 12 13 14 14 14 13 12 13 15 16 16 18 20 19 19 18 18 19 19 19 18 17 16 14 13 12 12 13 14 14 13 12 12 11 13 13 12 10 11 11 11 13 14 13 13 13 14 13 13 13 14 13 14 15 15
25 24 24 24 24 24 24 25 25 24 25 24 23 22 20 17 16 14 13 13 12 12 13 12 12 12 12 10 10 10 10 10 12 12 12 13 13 13 13 12 13 14 15 14 16 19 18 18 19 19 19 20 21 20 19 18 16 15 14 12 12 13 13 14 14 13 12 12 13 13 12 11 12 12 13 14 14 13 13 14 14 13 14 14 14 14 15 16
26 26 25 25 25 25 25 25 25 25 24 23 21 19 17 16 16 15 15 15 16 17 17 17 16 16 16 15 14 13 11 10 11 11 12 12 12 12 13 13 13 13 14 14 15 18 18 19 20 21 20 20 21 22 21 20 19 18 16 14 13 12 12 13 13 15 13 11 13 14 12 12 13 13 13 14 16 15 14 14 14 14 14 15 14 15 16 16
27 27 27 26 26 26 25 25 25 24 23 21 19 18 17 18 17 17 18 19 20 21 22 22 21 20 20 18 18 16 12 11 12 12 12 13 13 12 12 13 12 12 13 14 15 16 18 20 21 21 21 21 21 22 23 22 21 20 18 16 15 15 14 13 12 15 14 12 14 15 13 13 14 13 13 14 16 16 15 15 15 15 15 15 15 16 16 16
28 28 28 28 28 27 27 26 25 24 21 19 18 17 18 19 19 19 21 21 21 22 23 24 24 23 22 21 21 20 16 14 14 13 13 14 14 12 12 13 13 12 13 15 14 15 18 19 20 21 21 22 22 22 24 24 23 21 19 18 17 16 15 13 12 15 15 12 14 16 14 13 14 14 13 13 15 16 17 17 16 16 16 16 17 16 17 16
29 28 29 29 29 29 28 27 26 23 20 19 19 19 20 20 20 21 22 21 22 23 24 25 24 24 23 22 22 21 19 17 15 15 15 15 15 14 13 12 13 14 14 15 16 16 17 17 19 20 21 22 23 23 23 24 24 23 20 19 18 17 15 13 12 14 16 14 13 15 14 13 13 13 14 14 14 15 17 18 18 17 17 17 18 17 17 18
30 29 29 29 30 30 29 29 25 21 21 22 21 21 21 21 20 22 22 22 22 20 22 25 24 24 24 22 20 20 20 19 17 16 16 17 16 15 14 13 13 14 15 16 18 18 17 15 17 20 21 22 23 24 24 23 23 25 24 21 19 18 17 15 13 12 14 16 14 14 13 14 14 14 14 15 15 15 17 18 18 18 19 19 19 18 18 18
31 30 30 30 30 30 31 28 22 22 24 22 21 21 21 21 20 22 22 21 21 19 20 23 21 22 23 21 20 19 20 21 20 19 18 19 18 15 14 15 14 15 16 17 18 19 18 17 16 18 21 23 23 24 25 24 23 24 25 25 22 19 17 17 15 11 11 14 15 14 13 14 15 16 16 15 16 16 16 17 19 19 19 19 20 19 19 19
32 31 31 31 30 31 30 25 22 26 26 22 21 22 21 21 22 22 21 21 21 19 18 18 18 18 19 20 20 19 18 20 22 22 20 19 19 17 15 15 15 15 16 16 16 16 17 18 18 18 19 22 24 24 25 25 24 23 23 25 25 23 20 19 18 13 11 14 16 16 14 13 15 17 17 16 17 18 18 17 19 20 20 20 20 20 20 19
33 32 32 31 30 29 27 25 26 27 25 23 23 23 23 22 22 22 20 19 20 16 14 14 14 15 15 17 19 18 16 15 18 23 23 21 20 19 17 16 15 16 15 14 16 16 16 18 20 20 19 20 22 23 24 25 25 24 22 22 24 25 25 23 20 18 15 16 18 19 17 15 16 18 18 18 18 19 19 19 19 19 21 22 21 21 21 20
34 34 33 31 31 30 27 28 29 27 25 25 25 25 25 23 23 21 18 18 17 13 13 13 13 13 14 16 19 20 17 13 14 20 24 24 22 20 19 18 16 16 17 16 17 16 15 18 20 21 21 20 20 20 22 24 25 24 22 22 22 24 25 24 21 20 18 17 18 20 19 16 17 17 17 18 19 19 20 20 20 19 21 22 22 22 22 22
35 34 33 32 32 31 28 28 29 28 27 26 26 26 25 24 23 20 18 20 18 15 15 15 14 14 14 16 19 21 20 17 15 16 21 24 24 22 20 20 19 17 19 19 18 16 16 17 19 20 21 20 19 19 21 24 24 23 23 23 22 22 24 24 22 21 20 19 19 21 22 18 17 18 17 18 19 19 20 21 20 20 21 23 23 22 23 22
35 35 35 34 32 31 29 29 30 29 28 28 26 26 25 24 22 19 21 21 19 16 17 16 16 16 16 18 19 21 21 20 17 16 20 22 24 25 21 20 20 19 19 20 20 19 18 18 18 19 20 19 19 18 19 23 24 22 22 24 24 23 22 22 22 22 21 20 19 21 23 21 18 19 20 19 19 18 19 20 20 21 22 23 23 23 23 23
37 36 36 35 33 31 29 29 29 27 28 28 27 26 24 22 21 21 22 22 20 20 19 18 18 18 20 20 20 21 22 21 19 18 20 21 22 24 22 20 20 20 20 21 21 20 20 20 19 18 19 19 20 20 19 20 22 23 22 22 23 22 21 22 22 22 22 22 21 21 22 23 20 20 21 20 19 18 18 19 21 22 23 24 24 24 23 23
38 38 38 36 34 32 30 30 30 29 29 28 27 26 24 22 24 26 23 20 20 20 19 19 20 20 22 23 22 22 23 23 22 21 22 22 23 24 24 23 21 21 22 21 21 20 21 22 20 19 19 20 20 20 19 19 21 22 23 22 22 20 20 21 21 21 21 22 23 22 22 23 22 20 21 21 20 20 20 20 21 22 25 26 25 25 25 23
39 40 38 36 34 33 32 32 32 30 29 28 27 26 24 24 26 28 26 22 20 17 16 18 19 20 22 23 23 23 23 24 23 24 24 24 24 26 27 26 23 22 21 20 21 20 20 21 23 22 20 20 21 20 19 19 20 22 23 23 22 20 20 21 20 20 21 22 24 25 23 22 22 22 23 23 22 21 21 21 22 23 25 27 26 26 26 25
41 40 38 36 35 35 33 33 32 30 29 28 27 26 26 28 27 25 26 27 25 23 21 20 21 22 24 25 24 23 23 24 24 25 25 26 26 26 28 28 27 25 21 20 22 22 20 20 22 24 21 19 22 22 20 18 20 22 23 23 24 23 22 21 20 19 20 19 21 24 23 21 21 22 23 24 23 23 22 22 23 24 25 26 26 27 26 25
42 40 38 37 36 35 34 32 31 30 29 28 28 28 30 31 27 24 25 26 26 26 26 26 26 26 26 26 27 26 25 24 25 26 27 28 28 27 27 28 29 27 24 22 21 22 23 22 20 23 23 21 21 22 22 20 20 21 22 24 26 26 23 20 19 20 20 19 19 21 22 22 21 20 19 20 22 23 22 22 22 22 25 26 26 27 27 25
41 39 37 36 34 34 33 32 31 31 31 30 30 32 33 32 28 26 26 25 25 24 25 28 28 27 27 25 26 28 27 26 26 27 28 29 30 30 29 28 29 29 27 24 21 21 22 22 20 22 24 24 22 21 23 24 21 18 22 26 24 22 23 21 20 20 20 21 22 23 23 22 21 20 19 19 21 22 22 22 22 20 23 26 26 26 27 26
40 38 37 35 33 33 33 33 32 32 32 31 33 35 34 33 32 31 28 28 28 26 25 26 26 27 27 26 26 27 27 27 27 28 28 29 31 31 31 29 29 31 30 27 23 22 21 20 21 23 24 26 25 22 24 26 24 20 22 23 20 19 22 22 20 19 19 21 22 24 25 23 21 21 20 20 21 23 22 21 21 19 20 25 26 25 26 26
40 39 37 34 33 32 31 32 32 32 32 33 37 38 35 35 35 34 32 32 31 29 28 28 27 27 27 26 27 28 27 28 29 29 29 30 30 31 32 31 29 31 32 30 26 23 22 21 21 23 24 24 25 24 24 26 27 24 21 19 19 21 22 22 21 20 20 21 21 22 25 24 24 23 21 21 21 23 24 22 21 19 20 23 24 25 25 25
40 38 35 33 32 31 29 30 32 32 33 35 37 36 35 36 36 36 36 36 34 32 32 30 29 29 29 28 27 28 28 29 29 30 29 30 30 31 32 31 30 30 31 31 29 25 23 22 21 22 23 23 24 26 26 25 26 26 24 22 22 23 23 24 24 21 20 20 20 21 22 23 25 24 21 20 20 21 23 23 21 20 20 23 24 25 26 25
39 38 35 33 33 33 32 32 33 34 35 36 37 36 35 36 36 36 37 36 35 33 33 32 31 32 32 31 30 28 28 28 29 31 31 30 30 31 32 32 31 30 31 32 31 27 26 25 23 22 23 24 25 28 27 26 25 26 27 27 25 23 22 23 25 26 23 19 18 20 22 23 24 22 21 20 19 21 22 23 23 20 21 24 25 27 27 25
39 37 36 35 35 36 35 34 34 35 36 37 37 38 38 37 36 37 38 37 37 36 36 35 35 34 34 34 33 31 30 30 29 29 31 32 31 30 30 32 32 30 30 32 33 30 28 27 25 23 24 26 26 27 27 28 27 27 27 29 28 24 22 21 23 26 27 23 20 19 20 23 23 21 22 22 21 21 22 23 24 22 23 25 26 28 29 27
40 38 38 38 39 39 37 35 35 36 37 38 38 38 38 38 38 38 38 38 38 37 38 38 37 37 36 35 35 33 32 32 31 29 28 31 32 31 29 30 31 31 30 31 33 32 29 27 28 28 27 26 25 25 28 29 29 28 28 29 29 27 25 23 21 22 24 25 23 21 21 23 23 20 19 20 20 21 23 24 25 24 25 25 24 27 30 29
40 40 41 41 40 39 37 37 37 36 37 39 39 39 39 38 38 38 37 37 37 36 37 38 38 38 37 36 36 35 34 33 35 34 30 29 30 31 31 30 30 31 31 30 31 32 31 29 29 29 28 28 27 26 27 29 29 29 29 29 29 30 29 26 23 20 21 23 22 21 22 24 24 23 20 18 18 19 21 23 25 24 25 25 24 25 28 29
41 41 41 38 38 38 37 37 37 37 37 39 40 40 40 39 39 38 37 37 37 36 36 36 37 38 38 38 37 37 35 34 36 36 33 31 29 28 31 34 33 31 30 30 30 30 31 32 30 27 25 27 28 25 26 30 30 29 29 29 30 31 31 29 26 22 22 25 24 21 21 22 22 23 23 21 19 18 18 20 22 22 24 25 24 24 27 28
40 39 37 35 35 37 37 36 36 36 37 39 40 40 40 39 38 37 36 36 36 36 35 35 36 36 35 36 37 38 37 35 36 37 35 34 32 28 26 29 33 33 32 31 31 31 32 33 32 30 28 28 29 27 24 27 29 28 28 29 30 31 31 30 28 25 24 26 27 25 23 23 22 22 25 25 23 19 17 18 20 21 23 25 24 23 26 27
37 36 34 33 33 34 35 35 36 35 36 37 38 39 38 38 38 37 36 36 36 36 35 36 36 34 33 34 36 38 37 34 34 35 35 34 34 31 26 24 27 31 34 35 33 31 32 33 35 37 35 31 31 30 26 24 27 30 30 30 30 30 31 30 29 29 26 23 25 27 25 23 21 20 22 25 25 23 20 20 19 18 21 24 23 23 26 27
35 34 33 32 32 32 33 33 34 33 34 35 36 37 39 39 40 40 39 38 37 37 37 37 34 32 32 33 34 37 36 34 33 34 34 34 36 34 31 27 26 26 30 35 36 32 31 33 36 39 39 36 31 30 31 29 28 30 31 32 31 30 30 30 32 33 29 24 25 27 24 23 24 22 20 21 22 23 23 23 21 18 18 20 20 21 24 27
33 33 33 32 32 32 32 33 34 35 36 36 36 37 39 40 39 39 39 40 40 38 38 39 38 35 33 32 32 35 35 34 34 34 33 34 36 36 34 32 29 24 24 29 35 35 32 33 35 36 38 39 36 31 32 33 31 30 31 32 32 32 32 32 32 32 30 29 30 28 24 24 25 24 22 20 20 21 22 23 23 21 19 17 17 19 21 23
31 32 32 31 31 32 32 33 35 35 36 36 35 36 38 39 38 38 37 38 40 39 38 40 41 40 37 35 33 34 34 34 33 34 33 34 35 35 35 33 30 26 23 25 30 34 34 33 33 33 34 36 39 37 34 34 34 31 31 31 32 33 34 34 32 30 29 30 31 31 30 30 27 24 22 21 20 20 20 21 22 23 22 20 18 19 20 21
28 28 28 28 29 30 31 31 32 32 32 33 33 34 35 36 37 37 36 36 37 38 37 39 41 41 39 39 37 36 36 35 35 35 34 35 35 34 34 34 30 27 26 26 26 29 34 36 33 32 31 31 35 38 38 37 36 33 30 30 32 33 33 33 32 30 28 28 28 29 31 32 30 27 25 23 21 20 19 19 21 22 23 22 21 21 21 22
26 25 25 25 25 26 26 27 27 27 28 28 29 29 30 31 32 33 34 35 35 36 35 37 39 38 38 39 40 40 39 38 38 38 37 36 37 36 36 35 32 28 27 27 26 25 29 34 35 32 31 31 31 33 37 38 37 36 34 32 31 31 30 30 30 30 30 29 28 28 29 29 29 28 26 24 23 22 21 20 20 21 21 22 23 23 23 23
22 21 20 21 21 22 22 23 23 24 24 23 23 24 25 26 27 28 29 30 31 33 33 33 35 36 36 38 40 41 41 41 41 41 40 40 40 40 40 39 35 32 29 27 27 26 24 29 34 33 32 32 30 28 31 34 34 37 39 34 29 27 27 27 28 29 29 29 28 28 29 28 25 25 26 27 26 26 25 23 22 22 21 22 24 26 26 26
Wind_Direction
316 315 314 314 314 314 313 314 314 314 314 314 313 313 312 312 311 312 311 311 310 309 309 307 305 304 303 302 298 296 294 290 286 280 272 263 248 238 232 224 218 210 209 215 212 207 206 210 215 216 218 219 217 211 201 191 175 137 117 185 224 259 213 220 311 337 338 159 163 159 158 152 145 138 140 155 156 161 167 165 161 161 159 159 159 158 159 159
316 316 315 314 313 313 313 313 314 313 313 313 313 312 311 311 310 309 309 309 308 308 308 307 306 305 304 304 300 297 294 287 284 276 269 263 248 236 227 222 220 210 209 214 213 208 206 210 212 215 219 221 220 212 205 195 189 185 162 200 227 229 218 234 265 287 282 226 177 154 162 171 158 157 170 163 152 162 172 164 152 149 152 154 158 161 163 162
317 317 316 315 315 314 314 314 313 313 312 312 311 311 311 310 309 308 307 307 306 306 306 306 306 306 305 304 302 299 294 288 282 272 269 262 239 228 223 220 218 213 213 215 216 211 209 210 209 212 217 222 222 215 207 199 203 210 190 179 226 255 254 249 261 283 282 263 180 165 175 173 173 189 184 169 160 171 177 163 152 149 156 161 164 166 166 164
319 318 317 316 316 315 315 314 313 312 311 311 310 310 309 309 309 308 308 306 305 304 304 305 305 305 306 305 303 299 295 287 275 262 263 250 219 215 217 217 216 216 216 216 217 215 213 212 209 211 215 219 218 217 210 197 202 207 194 205 263 287 273 244 260 269 252 267 227 191 170 167 191 196 175 175 175 180 178 163 157 159 165 166 167 170 169 167
320 318 317 316 316 316 315 314 313 312 311 310 309 308 307 308 308 307 308 306 305 304 303 303 303 304 304 304 302 299 296 284 265 248 238 219 203 207 211 214 217 217 217 216 216 216 218 214 210 212 215 220 215 216 212 200 205 218 218 228 250 284 294 234 206 198 228 258 240 196 176 182 196 187 180 188 205 206 181 162 156 162 168 170 171 171 171 169
320 318 317 316 316 315 314 313 312 311 310 309 308 307 306 306 305 306 306 305 305 304 304 303 303 303 302 301 296 292 286 269 261 253 240 229 217 214 215 217 218 217 216 215 215 216 220 217 212 213 217 222 219 221 219 205 207 225 235 233 242 258 273 231 197 208 235 252 227 194 188 186 187 201 194 202 227 202 175 164 159 163 169 173 172 172 174 172
319 317 316 317 317 315 314 312 311 310 309 308 307 306 305 304 304 303 303 303 304 303 304 303 302 302 301 299 290 284 275 264 262 253 245 243 234 227 227 225 222 218 215 215 216 215 218 219 215 214 218 222 225 231 235 223 216 228 236 233 243 245 252 253 213 217 226 227 214 191 190 190 202 214 196 216 221 177 165 168 165 165 170 173 173 174 176 174
318 317 316 316 316 315 314 313 311 310 309 307 306 305 304 303 302 301 301 301 301 301 302 301 302 301 301 297 288 284 273 264 263 252 242 240 237 233 230 229 226 220 216 216 217 215 216 220 216 213 218 223 228 229 235 233 223 232 234 234 243 236 247 253 228 226 215 216 219 198 205 209 209 196 195 228 176 163 163 169 166 166 172 174 177 178 178 177
317 316 315 316 315 315 313 312 311 310 309 307 306 304 303 302 300 299 299 298 298 298 298 298 299 299 297 293 288 287 274 265 266 257 242 236 235 235 232 229 226 219 217 218 218 215 215 220 217 214 218 224 230 228 229 230 227 235 228 227 236 231 240 244 234 234 215 214 221 213 217 211 204 193 210 186 149 160 166 168 168 170 176 177 180 182 180 180
316 315 315 315 314 314 313 312 311 310 308 307 305 304 302 300 299 298 297 297 296 294 294 294 294 294 292 287 284 285 278 275 272 254 237 233 232 232 234 230 222 218 219 219 219 217 216 220 217 216 221 224 228 231 234 233 234 249 233 220 225 227 231 234 244 242 221 211 210 213 210 203 207 207 213 179 156 162 166 169 172 174 181 180 181 183 183 184
314 314 313 314 313 312 311 311 310 309 308 307 305 303 301 300 298 297 296 294 293 292 291 289 289 288 285 282 276 273 280 285 272 246 236 233 227 225 229 227 220 219 220 220 219 218 218 220 219 220 222 223 229 235 239 236 241 260 249 223 223 229 227 227 243 241 229 213 204 206 204 201 208 210 208 179 166 169 170 173 176 180 182 178 182 183 184 187
313 312 312 313 312 311 311 310 309 308 308 306 305 303 301 300 298 297 295 293 291 288 287 285 285 283 281 277 265 262 276 285 272 256 247 235 232 232 229 227 223 218 219 221 220 218 219 221 222 225 223 222 229 234 238 240 252 262 248 227 228 231 230 233 239 235 228 214 201 200 203 208 211 210 199 177 173 175 175 177 180 185 181 178 184 183 184 187
311 311 311 311 311 310 310 309 308 307 306 305 304 303 301 299 298 297 295 292 290 287 284 282 280 279 277 272 265 266 274 277 270 262 253 244 246 244 234 231 228 221 218 220 220 218 220 220 221 226 227 225 227 230 236 240 251 255 240 233 233 235 240 237 233 236 234 214 200 202 218 215 215 212 194 183 184 182 183 186 185 187 182 183 186 183 185 187
310 309 310 310 310 309 309 308 307 306 305 304 302 301 300 298 296 295 294 291 289 286 283 280 278 276 272 269 272 275 271 267 264 259 254 250 252 247 236 231 229 227 223 222 222 221 221 221 222 225 227 227 230 234 238 240 242 245 243 239 232 237 244 230 223 235 233 208 198 205 225 214 213 212 196 196 197 188 193 194 188 189 185 187 188 183 184 187
310 309 309 309 308 307 307 306 306 305 304 303 301 299 298 296 294 293 291 288 286 284 281 281 277 273 274 273 276 278 269 260 257 254 250 248 249 247 237 230 228 229 227 226 224 224 225 224 223 224 225 226 230 233 234 241 245 242 239 233 228 231 236 228 219 223 222 205 197 206 226 216 216 214 196 201 202 191 198 197 193 193 186 189 190 186 184 187
310 310 309 308 307 306 306 305 305 304 303 302 300 298 295 293 291 288 286 284 283 280 278 280 276 273 279 279 280 278 264 254 254 251 246 244 247 245 239 234 232 228 227 226 223 224 226 226 225 224 224 225 226 228 232 242 244 238 227 223 227 223 226 232 214 209 214 203 200 210 224 215 216 214 199 202 202 194 198 197 196 195 188 190 190 188 186 188
310 310 310 308 307 305 305 304 303 303 302 302 300 297 294 291 288 285 283 280 279 276 273 277 277 275 277 279 282 277 262 255 254 248 241 240 243 243 240 236 233 229 225 224 223 223 224 225 226 224 223 224 223 222 227 232 232 234 227 224 230 223 224 231 210 209 214 202 205 214 217 214 215 213 203 203 202 198 200 198 197 195 190 191 192 191 189 191
310 310 309 308 306 305 305 304 303 302 302 301 298 296 292 289 288 285 282 279 277 275 273 273 273 278 278 273 273 273 267 259 251 245 240 236 237 237 235 232 229 226 225 225 223 222 222 223 224 225 223 222 220 219 221 223 222 226 229 227 230 228 233 231 214 214 213 205 211 213 214 218 216 211 207 206 204 204 206 202 199 197 192 192 194 195 193 193
310 309 308 307 306 305 304 304 302 301 302 300 298 295 288 287 289 281 278 279 274 274 276 269 258 267 277 272 267 271 275 265 249 244 240 230 230 232 229 230 227 222 223 226 222 219 220 223 224 225 225 221 219 218 219 221 220 224 228 227 223 223 230 229 218 213 210 210 215 215 218 218 212 213 216 214 209 208 209 205 203 200 195 194 195 197 197 197
308 308 308 306 305 304 304 303 302 301 301 298 297 294 286 287 287 276 275 275 271 272 274 269 259 260 270 271 270 272 277 270 249 238 235 226 224 229 229 229 226 222 224 226 223 220 220 225 226 225 225 223 221 220 221 222 223 227 231 229 226 224 227 228 220 210 210 220 220 216 219 216 211 214 220 219 213 211 211 208 207 204 199 198 197 198 200 200
307 306 307 306 305 304 303 303 301 300 299 294 293 290 285 288 286 279 281 276 269 269 269 268 264 261 265 265 263 266 273 274 256 237 231 225 222 228 228 226 228 227 226 226 225 223 224 228 228 225 225 225 224 222 222 223 224 228 232 233 235 237 238 237 222 209 214 229 222 214 216 219 217 217 221 220 214 213 214 210 210 207 203 202 200 200 202 203
305 305 305 305 305 304 303 302 300 298 295 290 289 287 285 287 286 284 285 278 271 268 266 266 264 262 263 261 257 257 260 263 257 241 228 223 223 227 225 222 230 232 226 226 227 226 228 231 227 224 225 226 227 225 222 223 225 227 230 234 238 240 242 245 230 216 220 230 221 213 219 224 222 222 224 220 216 216 215 212 212 209 206 205 202 201 202 203
304 304 304 303 304 303 301 301 298 292 290 288 287 285 285 286 287 287 285 279 275 269 263 261 260 258 257 256 252 248 249 249 249 242 228 221 223 224 226 228 231 232 228 226 228 229 231 231 226 225 225 224 227 226 223 223 225 227 228 232 236 233 236 244 238 226 224 225 221 216 222 228 225 222 223 221 220 221 217 213 212 211 210 207 204 203 202 202
304 303 302 302 302 301 300 299 292 287 289 288 284 285 287 288 289 291 285 277 275 269 262 259 256 253 251 251 247 240 242 244 243 241 228 221 223 224 231 236 233 232 232 229 229 234 237 232 225 226 227 226 226 227 224 223 225 227 227 230 231 228 233 241 244 242 228 219 217 216 222 228 224 220 223 225 227 227 221 215 214 213 211 209 207 206 205 205
303 302 301 301 300 300 299 294 285 287 290 286 286 289 290 291 290 291 287 278 275 270 264 261 256 254 249 245 242 238 240 242 240 239 231 223 224 228 233 236 236 235 233 231 232 235 238 234 227 226 227 226 227 227 225 224 226 227 227 228 228 230 236 239 241 244 224 215 216 213 222 233 227 221 224 227 229 229 226 220 217 214 212 211 210 209 207 207
303 301 301 300 299 300 297 287 283 290 287 281 286 289 288 289 289 289 284 278 278 273 265 260 255 254 247 238 237 235 242 246 239 236 234 227 225 229 235 234 237 238 233 235 238 239 236 233 232 230 226 225 227 229 226 224 227 229 226 224 227 233 239 238 239 237 224 223 223 217 225 237 231 226 226 226 226 227 228 226 220 216 214 213 212 211 209 208
302 300 300 298 297 298 291 282 285 288 282 279 284 285 284 286 287 287 281 276 277 271 261 258 254 254 245 234 228 227 243 250 235 231 232 229 225 227 234 234 234 237 235 236 238 238 233 229 231 232 229 228 228 229 226 223 227 230 225 223 225 230 235 237 240 243 238 234 231 225 227 234 234 233 230 225 226 227 227 225 223 220 216 214 214 213 211 210
301 299 298 297 296 294 285 281 284 282 278 280 283 282 281 283 283 281 275 272 274 269 262 257 254 256 247 231 223 228 244 246 234 232 228 228 226 225 232 234 232 234 233 236 239 237 233 230 229 230 231 232 230 229 226 224 228 229 226 226 226 227 231 235 238 244 244 238 234 227 224 233 240 237 230 224 225 228 227 224 225 223 217 214 215 214 212 212
300 298 297 296 294 290 283 278 278 277 277 280 282 281 279 278 277 272 266 268 270 268 264 257 254 256 246 230 226 234 242 244 244 236 224 225 226 227 235 235 234 237 234 237 243 240 237 235 231 230 232 232 231 229 225 225 229 228 226 229 231 230 230 233 234 239 243 242 238 228 222 231 243 236 227 223 225 228 227 226 227 226 220 216 215 215 213 214
298 297 296 295 292 288 284 278 273 274 277 279 279 279 277 272 268 263 260 262 267 267 263 259 257 252 242 235 235 237 238 243 246 235 224 226 225 227 235 234 234 241 239 239 242 241 241 239 236 234 235 233 231 229 226 227 228 227 225 228 233 235 233 234 235 235 239 241 237 230 225 230 241 237 228 227 228 227 226 227 230 229 225 220 218 216 215 215
297 295 294 293 289 286 282 278 274 273 276 276 276 275 272 266 260 258 259 262 267 264 259 260 258 248 241 240 240 238 236 239 239 235 231 229 224 225 231 232 233 238 241 242 242 240 239 239 238 237 236 233 232 232 229 226 226 225 225 225 229 235 236 237 236 233 236 238 235 234 232 231 238 237 231 232 230 226 227 230 231 229 226 223 220 219 218 218
296 295 294 290 286 282 277 274 275 274 274 273 273 270 265 261 256 254 259 266 266 260 257 258 255 249 245 243 242 237 235 236 236 237 235 230 229 228 228 231 231 231 237 240 240 240 238 238 238 238 236 232 230 232 230 226 224 224 224 222 224 229 232 234 234 232 236 239 235 234 237 237 240 237 231 231 231 230 232 232 230 228 225 223 222 221 220 219
296 295 293 289 285 281 275 273 274 272 271 270 268 264 259 259 258 253 254 259 260 263 265 258 255 253 248 245 244 239 236 236 236 237 236 231 232 231 229 230 231 232 237 238 238 240 240 238 234 234 235 230 228 229 227 224 223 222 222 221 221 223 227 231 233 234 237 240 236 234 239 243 244 241 234 233 236 236 235 230 228 227 223 222 222 221 219 218
296 294 291 287 284 280 275 272 270 268 267 266 263 259 253 256 261 257 254 255 259 266 267 262 262 260 252 247 244 240 238 238 235 235 234 231 232 233 230 229 230 234 238 237 237 237 238 239 232 230 231 227 226 227 227 225 224 225 223 222 225 226 227 231 232 234 239 242 239 236 238 241 244 245 238 235 238 237 234 231 229 227 223 220 219 218 217 217
295 293 289 286 283 279 274 268 266 264 263 261 259 255 251 254 260 260 258 257 257 261 263 263 263 261 257 251 245 239 238 238 234 233 234 232 232 233 231 229 229 231 233 235 237 235 238 242 235 230 231 229 227 226 225 226 229 229 222 223 230 229 230 234 234 235 239 243 242 237 238 239 242 245 239 235 236 235 233 230 229 229 224 219 217 217 218 218
294 292 289 285 281 279 273 266 264 260 258 258 256 253 252 255 258 259 261 260 258 262 267 265 259 256 256 252 247 241 238 238 234 233 235 233 233 234 233 232 229 229 231 233 235 234 238 242 236 230 231 230 228 225 223 224 228 228 223 227 231 228 229 234 238 238 238 241 241 239 242 243 243 245 242 238 237 233 230 228 229 230 223 219 219 218 219 220
292 291 288 283 281 280 273 265 262 257 254 255 254 254 256 257 257 258 260 261 262 265 267 263 256 254 253 250 248 243 238 239 236 234 235 233 234 233 232 233 231 229 230 232 236 236 238 243 238 230 230 230 228 227 226 225 225 225 226 229 229 228 229 230 234 237 236 241 242 239 241 241 240 244 243 239 236 229 226 226 228 229 221 219 219 218 220 222
290 288 284 279 280 284 275 264 258 255 254 256 256 257 258 258 257 258 260 261 262 262 262 260 255 252 253 252 251 245 239 238 237 236 236 235 237 234 231 233 232 230 229 230 235 237 237 243 241 232 231 229 226 227 229 226 224 226 229 228 224 227 229 228 231 235 235 241 244 241 241 239 238 241 240 238 235 227 224 225 225 226 223 220 217 217 220 223
289 286 281 275 279 285 278 265 258 254 255 257 258 258 259 258 258 259 260 259 257 257 257 256 253 251 251 254 254 250 243 239 237 237 237 237 238 234 231 232 233 230 228 227 232 235 233 239 242 237 232 227 224 227 227 225 223 225 230 232 228 229 230 229 232 236 236 240 243 242 244 241 238 237 236 237 232 225 224 225 226 227 224 221 218 218 222 223
287 284 277 273 277 282 279 270 260 255 256 258 258 259 260 260 260 258 258 257 254 253 254 254 253 251 251 253 253 251 248 246 241 238 238 238 237 235 232 231 232 231 228 226 230 232 232 236 240 239 233 228 226 227 225 223 221 222 226 229 230 231 231 230 232 235 235 239 240 240 243 243 240 236 234 236 234 230 228 227 228 230 224 222 221 220 222 221
286 281 275 273 278 281 277 270 261 257 258 258 258 259 259 259 260 259 258 258 255 253 253 254 253 251 251 252 251 250 249 249 246 241 238 236 236 236 234 231 232 232 230 228 228 229 230 233 237 237 234 233 232 229 226 224 223 223 226 228 229 229 229 229 234 234 232 236 239 241 247 247 243 240 237 238 237 235 233 231 232 232 227 227 228 224 223 222
282 277 274 275 278 279 274 265 261 259 259 259 258 259 258 258 258 258 257 257 255 253 251 251 250 250 250 249 249 249 249 248 247 245 241 237 236 236 233 231 231 231 231 232 230 228 229 231 235 237 237 237 237 232 227 225 225 226 228 229 228 228 228 231 236 234 232 237 239 241 249 250 243 239 238 239 238 236 235 234 234 234 230 229 230 227 226 226
280 278 277 276 275 273 268 262 260 259 259 260 260 259 258 258 258 257 256 255 254 253 251 249 249 249 248 248 248 247 247 247 245 244 245 242 239 238 235 232 230 230 231 233 231 227 227 229 232 235 238 240 240 237 230 225 224 226 228 228 227 228 229 232 237 235 233 237 237 238 247 249 244 238 235 238 241 239 237 233 231 233 230 228 229 227 226 226
281 279 277 275 272 267 264 262 261 260 260 261 261 260 259 257 256 256 255 254 253 252 251 249 249 249 248 247 247 245 244 245 244 243 243 242 240 241 240 234 230 230 231 232 230 226 227 228 228 230 234 235 235 236 229 222 222 226 227 226 226 227 228 231 236 236 236 236 233 236 246 248 244 239 236 239 241 240 239 232 226 227 227 230 234 229 225 225
282 279 275 274 271 264 261 261 261 261 262 262 262 261 259 256 255 256 256 255 253 250 251 250 249 249 248 247 246 244 242 243 244 242 242 241 239 237 240 239 234 233 233 230 227 226 228 228 226 226 228 229 228 229 227 222 222 227 228 226 226 225 225 229 232 234 237 237 234 236 246 249 246 239 236 238 238 237 239 232 227 229 231 233 235 227 222 223
280 278 275 273 269 264 262 263 262 262 262 263 262 260 260 258 256 256 256 255 253 252 252 250 249 250 249 249 247 243 241 243 243 240 240 241 237 233 239 244 238 238 240 234 226 227 230 229 227 227 228 230 229 230 230 226 224 225 226 227 227 226 224 226 230 233 236 237 236 238 242 245 244 238 234 236 235 233 235 231 229 236 237 236 235 227 221 221
277 276 275 273 270 265 263 263 263 262 263 265 263 261 262 261 259 257 255 253 254 255 252 249 249 251 250 251 249 244 243 244 241 239 240 239 237 237 239 237 232 240 248 237 226 226 230 229 228 228 229 231 231 230 230 229 229 227 224 225 227 227 226 225 229 234 234 235 240 241 238 239 242 240 238 238 235 233 234 233 229 230 232 233 233 227 221 221
276 275 275 274 271 267 265 265 265 265 266 266 265 263 263 262 261 259 256 253 254 255 252 249 249 250 250 250 248 245 245 244 240 240 242 240 238 238 237 233 229 237 249 238 226 225 229 230 229 228 229 230 230 231 231 230 232 232 227 224 225 227 228 229 231 233 232 234 241 241 237 238 242 242 240 238 236 234 235 236 230 224 223 227 228 223 218 218
277 276 275 273 271 269 268 268 268 267 266 266 265 265 264 263 262 260 257 255 254 252 252 251 250 251 251 249 246 244 242 242 241 240 241 241 238 235 233 231 228 231 240 239 229 226 229 230 228 228 229 230 229 230 232 231 232 234 230 226 225 227 229 231 234 235 233 236 240 240 239 240 241 241 239 234 232 232 234 235 231 224 222 224 226 224 218 213
278 277 277 275 272 270 270 269 268 266 265 264 264 263 263 264 263 261 257 256 255 252 251 252 252 251 250 247 245 243 240 240 241 241 241 242 237 232 228 226 225 231 237 234 228 227 229 228 226 226 228 230 228 227 229 230 231 233 232 228 226 227 229 230 232 235 236 238 239 238 239 241 240 239 239 235 231 230 232 234 233 230 226 222 224 227 223 218
277 277 277 275 271 270 270 269 267 265 263 262 262 262 263 263 263 263 258 255 255 253 251 253 252 249 247 246 244 242 241 241 240 240 240 239 236 233 228 225 227 234 236 231 227 230 231 227 223 223 226 229 229 226 225 226 229 233 234 230 227 227 228 229 230 232 234 237 238 238 239 241 240 237 238 238 234 231 232 233 233 234 231 221 219 224 224 221
277 276 275 273 270 270 271 269 266 265 262 260 261 262 263 262 263 264 261 255 255 254 252 252 251 247 245 245 242 241 242 242 241 240 238 236 236 234 231 228 230 231 232 233 229 228 232 229 222 220 223 227 228 226 224 222 225 231 232 230 229 229 229 231 231 230 231 233 237 240 240 240 239 235 236 238 237 234 233 233 232 234 235 228 221 221 223 222